記事タイトル:Comet C/2003 R1 (LINEAR) 

最新の情報は「更新」や「再読み込み」ボタンを押してリロードしてご覧ください。

書き込み欄へ  ヘルプ
お名前: 佐藤 裕久   
LINEARの自動サーベイに小惑星状の天体として発見され、NEO Confirmation Pageに公表された。
CCD観測で得られた画像から彗星状であることがわかった。
9月5.08日UT、J. TichaとM. Tichy (Klet天文台, 1.06-m KLENOT telescope)の観測では、少し
拡散した6″のコマある。6.39日UT、J. E. McGaha (Sabino Canyon天文台、アリゾナ州、0.30-m
f/10.0 Schmidt-Cassegrain)では、3′のコマとP.A. 320°に扇型の尾がある。


発見位置は次のとおり、

     2003 UT             R.A. (2000) Decl.       Mag.
     July 30.39211    1 20 09.26   + 3 40 44.0   18.9

暫定放物線軌道要素、位置推算表は次のとおり、

Orbital elements:
    C/2003 R1 (LINEAR)
T 2003 July  9.968 TT                                   MPC
q   2.15420              (2000.0)            P               Q
                   Peri.  306.497       +0.638523       +0.768906
                   Node   356.282       +0.761365       -0.637325
e   1.0            Incl.  149.675       -0.112299       +0.050999
From 41 observations 2003 Sept. 2-6.

Ephemeris:
    C/2003 R1 (LINEAR)
Date    TT    R. A. (2000) Decl.     Delta      r     Elong.  Phase   m1    m2
2003 08 29    03 37.33   -00 44.4    1.781    2.232   102.7    26.2        19.2
2003 09 08    03 09.05   -02 41.7    1.599    2.265   118.9    22.9        18.9
2003 09 18    02 30.73   -05 06.0    1.461    2.304   137.4    17.2        18.5
2003 09 28    01 43.29   -07 38.3    1.394    2.347   156.3     9.9        18.2
2003 10 08    00 52.10   -09 44.1    1.416    2.394   164.6     6.3        18.1
2003 10 18    00 05.02   -10 57.5    1.528    2.446   150.8    11.5        18.6
2003 10 28    23 27.30   -11 19.8    1.712    2.502   133.5    16.8        19.1
2003 11 07    22 59.86   -11 07.3    1.945    2.561   117.7    20.0        19.5
2003 11 17    22 41.05   -10 35.4    2.207    2.623   103.6    21.5        19.9
2003 11 27    22 28.79   -09 53.2    2.483    2.688    91.0    21.5        20.2
2003 12 07    22 21.29   -09 05.2    2.760    2.755    79.4    20.6        20.4
2003 12 17    22 17.19   -08 13.9    3.030    2.824    68.6    18.9        20.6
2003 12 27    22 15.55   -07 20.0    3.287    2.896    58.4    16.8        20.8

(IAUC 8195、MPEC 2003-R35)
[2003年9月7日 21時21分13秒]

この記事への返信をどうぞ。
氏名
E-mail URL



記事一覧に戻る